TimeHST,TemperatureF,Dew PointF,Humidity,Sea Level PressureIn,VisibilityMPH,Wind Direction,Wind SpeedMPH,Gust SpeedMPH,PrecipitationIn,Events,Conditions,WindDirDegrees,DateUTC
12:53 AM,60.1,55.0,83,30.18,10.0,Calm,Calm,-,N/A,,Partly Cloudy,0,2013-02-13 10:53:00
1:53 AM,64.9,55.9,73,30.16,10.0,Variable,3.5,-,N/A,,Overcast,0,2013-02-13 11:53:00
2:53 AM,63.0,55.9,78,30.13,10.0,Calm,Calm,-,N/A,,Partly Cloudy,0,2013-02-13 12:53:00
3:53 AM,66.9,55.0,66,30.13,10.0,Calm,Calm,-,N/A,,Overcast,0,2013-02-13 13:53:00
4:53 AM,64.0,55.0,73,30.12,10.0,Calm,Calm,-,N/A,,Scattered Clouds,0,2013-02-13 14:53:00
5:53 AM,62.1,55.0,78,30.13,10.0,Calm,Calm,-,N/A,,Partly Cloudy,0,2013-02-13 15:53:00
6:53 AM,59.0,54.0,83,30.14,10.0,Calm,Calm,-,N/A,,Partly Cloudy,0,2013-02-13 16:53:00
7:53 AM,66.0,55.0,68,30.15,10.0,Calm,Calm,-,N/A,,Overcast,0,2013-02-13 17:53:00
8:53 AM,72.0,55.0,55,30.17,10.0,Variable,3.5,-,N/A,,Overcast,0,2013-02-13 18:53:00
9:53 AM,69.1,60.1,73,30.18,9.0,East,4.6,-,0.00,Rain,Light Rain,80,2013-02-13 19:53:00
10:53 AM,75.9,55.9,50,30.16,10.0,Variable,5.8,-,0.00,,Mostly Cloudy,0,2013-02-13 20:53:00
11:53 AM,73.9,54.0,50,30.14,10.0,ENE,6.9,-,N/A,,Clear,70,2013-02-13 21:53:00
12:53 PM,78.1,55.0,45,30.11,10.0,Variable,5.8,-,N/A,,Partly Cloudy,0,2013-02-13 22:53:00
1:53 PM,79.0,54.0,42,30.08,10.0,ENE,9.2,-,N/A,,Clear,70,2013-02-13 23:53:00
2:53 PM,75.0,55.0,50,30.06,10.0,Variable,4.6,-,N/A,,Scattered Clouds,0,2013-02-14 00:53:00
3:53 PM,77.0,54.0,45,30.05,10.0,Variable,3.5,-,N/A,,Scattered Clouds,0,2013-02-14 01:53:00
4:53 PM,73.9,55.9,53,30.07,10.0,Variable,5.8,-,N/A,,Mostly Cloudy,0,2013-02-14 02:53:00
5:53 PM,73.0,55.9,55,30.08,10.0,Variable,5.8,-,N/A,,Mostly Cloudy,0,2013-02-14 03:53:00
6:53 PM,70.0,57.0,63,30.10,10.0,Variable,3.5,-,N/A,,Mostly Cloudy,0,2013-02-14 04:53:00
7:53 PM,70.0,57.0,63,30.13,10.0,Variable,3.5,-,N/A,,Mostly Cloudy,0,2013-02-14 05:53:00
8:53 PM,68.0,57.0,68,30.14,10.0,Variable,4.6,-,N/A,,Partly Cloudy,0,2013-02-14 06:53:00
9:53 PM,69.1,57.9,68,30.15,10.0,Variable,4.6,-,N/A,,Overcast,0,2013-02-14 07:53:00
10:53 PM,68.0,57.0,68,30.14,10.0,Calm,Calm,-,N/A,,Mostly Cloudy,0,2013-02-14 08:53:00
11:53 PM,68.0,57.0,68,30.14,10.0,Variable,3.5,-,N/A,,Mostly Cloudy,0,2013-02-14 09:53:00